EZY82ME EGCC-GVAC

Flight info

Callsign EZY82ME
Flight time N/A
Altitude 34000
Route ASMIM DCT NOKIN P17 BEPHE DCT OSSEP DCT ELNIF DCT ZESPE DCT DAWLY DCT BHD DCT SALCO/N0435F330 DCT EBOMO DCT LOTEE/N0438F350 DCT PINEK DCT BEXAL DCT SAMAR DCT YUSME/N0449F370 DCT LIMAL/N0451F360 N873 IPERA DCT DIMKI DIMKI1S
Aircraft A320/M-SDE2E3FGHIJ1RWXYZ/LB1

Departure

Time N/A
Airport Manchester Airport (EGCC)

Arrival

Time 2026-04-25 18:32
Airport Amílcar Cabral International Airport (GVAC)
Time Latitude Longitude Altitude Speed Heading
2026-04-25 17:16 23.02006 -18.96942 33008 ft 402 kts 221°
2026-04-25 17:16 22.99618 -18.98529 32999 ft 402 kts 221°
2026-04-25 17:17 22.94861 -19.01694 32998 ft 402 kts 221°
2026-04-25 17:17 22.90126 -19.04850 33013 ft 402 kts 221°
2026-04-25 17:18 22.85349 -19.08027 33005 ft 404 kts 221°
2026-04-25 17:18 22.80561 -19.11207 32997 ft 403 kts 221°
2026-04-25 17:19 22.75775 -19.14380 33000 ft 403 kts 221°
2026-04-25 17:19 22.70990 -19.17551 33000 ft 403 kts 221°
2026-04-25 17:20 22.66212 -19.20720 32997 ft 403 kts 221°
2026-04-25 17:20 22.61428 -19.23885 32995 ft 403 kts 221°
2026-04-25 17:21 22.56645 -19.27051 33003 ft 403 kts 221°
2026-04-25 17:21 22.51854 -19.30223 32997 ft 405 kts 221°
2026-04-25 17:22 22.47854 -19.32859 33000 ft 405 kts 221°
2026-04-25 17:22 22.42230 -19.36571 33000 ft 405 kts 221°
2026-04-25 17:23 22.37424 -19.39749 32997 ft 405 kts 221°
2026-04-25 17:23 22.32611 -19.42921 32997 ft 406 kts 221°
2026-04-25 17:24 22.27795 -19.46086 32998 ft 405 kts 221°
2026-04-25 17:24 22.23023 -19.49227 32994 ft 404 kts 221°
2026-04-25 17:25 22.18217 -19.52397 32997 ft 406 kts 221°
2026-04-25 17:25 22.13378 -19.55570 32997 ft 407 kts 221°
2026-04-25 17:26 22.08535 -19.58735 32994 ft 407 kts 221°
2026-04-25 17:26 22.03695 -19.61904 32996 ft 407 kts 221°
2026-04-25 17:27 21.98862 -19.65079 32991 ft 407 kts 221°
2026-04-25 17:27 21.95630 -19.67200 32991 ft 407 kts 221°
2026-04-25 17:28 21.89192 -19.71409 32991 ft 407 kts 221°
2026-04-25 17:28 21.84345 -19.74569 32992 ft 408 kts 221°
2026-04-25 17:29 21.79485 -19.77738 32991 ft 409 kts 221°
2026-04-25 17:29 21.74623 -19.80912 32987 ft 408 kts 221°
2026-04-25 17:30 21.69767 -19.84083 32993 ft 408 kts 221°
2026-04-25 17:30 21.64907 -19.87245 32994 ft 408 kts 221°
2026-04-25 17:31 21.60045 -19.90404 32988 ft 408 kts 221°
2026-04-25 17:31 21.55185 -19.93562 32991 ft 408 kts 221°
2026-04-25 17:32 21.50319 -19.96731 32985 ft 410 kts 221°
2026-04-25 17:32 21.45479 -19.99886 32992 ft 410 kts 221°
2026-04-25 17:33 21.40559 -20.03077 32986 ft 410 kts 221°
2026-04-25 17:33 21.35706 -20.06213 32985 ft 410 kts 220°
2026-04-25 17:34 21.30816 -20.09376 32979 ft 410 kts 221°
2026-04-25 17:34 21.25934 -20.12544 32988 ft 410 kts 221°
2026-04-25 17:35 21.21049 -20.15706 32990 ft 410 kts 220°
2026-04-25 17:35 21.16149 -20.18872 32985 ft 412 kts 220°
2026-04-25 17:36 21.11237 -20.22041 32986 ft 412 kts 220°
2026-04-25 17:36 21.06329 -20.25208 32986 ft 412 kts 220°
2026-04-25 17:37 21.01415 -20.28375 32983 ft 412 kts 220°
2026-04-25 17:37 20.96503 -20.31538 32983 ft 412 kts 220°
2026-04-25 17:38 20.93217 -20.33655 32983 ft 412 kts 220°
2026-04-25 17:38 20.86680 -20.37863 32952 ft 412 kts 220°
2026-04-25 17:39 20.81761 -20.41029 32979 ft 414 kts 220°
2026-04-25 17:39 20.76824 -20.44199 32977 ft 414 kts 220°
2026-04-25 17:40 20.71886 -20.47367 32974 ft 414 kts 220°
2026-04-25 17:40 20.66949 -20.50531 32985 ft 414 kts 220°
2026-04-25 17:41 20.62011 -20.53694 32982 ft 414 kts 220°
2026-04-25 17:41 20.57070 -20.56851 32983 ft 414 kts 220°
2026-04-25 17:42 20.52122 -20.60010 32977 ft 414 kts 219°
2026-04-25 17:42 20.47180 -20.63177 32979 ft 415 kts 219°
2026-04-25 17:43 20.42235 -20.66339 32982 ft 415 kts 219°
2026-04-25 17:43 20.37281 -20.69506 32982 ft 415 kts 219°
2026-04-25 17:44 20.32356 -20.72640 32983 ft 415 kts 219°
2026-04-25 17:44 20.27393 -20.75791 32987 ft 415 kts 219°
2026-04-25 17:45 20.23986 -20.77768 32976 ft 425 kts 210°
2026-04-25 17:45 20.17052 -20.81471 32972 ft 413 kts 221°
2026-04-25 17:46 20.12230 -20.84789 32986 ft 414 kts 220°
2026-04-25 17:46 20.07253 -20.87924 32987 ft 416 kts 218°
2026-04-25 17:47 20.02251 -20.91020 32977 ft 415 kts 219°
2026-04-25 17:47 19.97280 -20.94148 32986 ft 415 kts 219°
2026-04-25 17:48 19.89856 -20.98883 32972 ft 415 kts 219°
2026-04-25 17:49 19.84902 -21.02036 32982 ft 415 kts 219°
2026-04-25 17:49 19.79927 -21.05182 32979 ft 417 kts 219°
2026-04-25 17:50 19.74944 -21.08336 32978 ft 417 kts 219°
2026-04-25 17:50 19.69963 -21.11495 32978 ft 417 kts 219°
2026-04-25 17:51 19.65014 -21.14627 32972 ft 417 kts 219°
2026-04-25 17:51 19.60026 -21.17776 32978 ft 417 kts 218°
2026-04-25 17:52 19.55031 -21.20922 32980 ft 417 kts 218°
2026-04-25 17:52 19.50041 -21.24071 32958 ft 417 kts 218°
2026-04-25 17:53 19.45039 -21.27228 32977 ft 419 kts 218°
2026-04-25 17:53 19.40024 -21.30376 32978 ft 419 kts 218°
2026-04-25 17:54 19.35010 -21.33528 32981 ft 419 kts 218°
2026-04-25 17:54 19.29999 -21.36688 32977 ft 419 kts 218°
2026-04-25 17:55 19.25834 -21.39312 32971 ft 419 kts 218°
2026-04-25 17:55 19.20819 -21.42460 32981 ft 419 kts 218°
2026-04-25 17:56 19.15809 -21.45609 32952 ft 419 kts 217°
2026-04-25 17:56 19.10775 -21.48743 32974 ft 420 kts 218°
2026-04-25 17:57 19.04934 -21.52422 32971 ft 420 kts 218°
2026-04-25 17:57 19.00722 -21.55075 32971 ft 421 kts 218°
2026-04-25 17:58 18.95686 -21.58227 32976 ft 420 kts 218°
2026-04-25 17:58 18.90650 -21.61370 32973 ft 420 kts 218°
2026-04-25 17:59 18.85619 -21.64513 32977 ft 420 kts 218°
2026-04-25 17:59 18.80588 -21.67665 32957 ft 420 kts 217°
2026-04-25 18:00 18.75545 -21.70814 32975 ft 421 kts 217°
2026-04-25 18:00 18.70495 -21.73959 32978 ft 421 kts 217°
2026-04-25 18:01 18.65485 -21.77084 32977 ft 421 kts 217°
2026-04-25 18:01 18.60440 -21.80231 32975 ft 421 kts 217°
2026-04-25 18:02 18.55390 -21.83374 32975 ft 421 kts 217°
2026-04-25 18:02 18.50337 -21.86509 32975 ft 421 kts 217°
2026-04-25 18:03 18.45288 -21.89647 32973 ft 422 kts 217°
2026-04-25 18:03 18.40226 -21.92793 32975 ft 423 kts 217°
2026-04-25 18:04 18.35162 -21.95935 32969 ft 422 kts 217°
2026-04-25 18:04 18.30101 -21.99075 32969 ft 422 kts 217°
2026-04-25 18:05 18.25036 -22.02216 32970 ft 423 kts 217°
2026-04-25 18:05 18.19972 -22.05351 32970 ft 422 kts 217°
2026-04-25 18:06 18.14910 -22.08487 32970 ft 422 kts 217°
2026-04-25 18:06 18.12385 -22.10048 32777 ft 418 kts 217°
2026-04-25 18:06 18.09906 -22.11571 32527 ft 409 kts 217°
2026-04-25 18:06 18.07500 -22.13053 32284 ft 405 kts 217°
2026-04-25 18:07 18.05077 -22.14551 32034 ft 403 kts 217°
2026-04-25 18:07 18.02663 -22.16046 31787 ft 402 kts 218°
2026-04-25 18:07 18.00253 -22.17537 31541 ft 401 kts 218°
2026-04-25 18:07 17.97849 -22.19024 31319 ft 401 kts 218°
2026-04-25 18:08 17.95452 -22.20509 31085 ft 400 kts 218°
2026-04-25 18:08 17.93053 -22.21994 30847 ft 399 kts 218°
2026-04-25 18:08 17.90669 -22.23467 30552 ft 395 kts 218°
2026-04-25 18:08 17.88307 -22.24924 30127 ft 393 kts 218°
2026-04-25 18:09 17.85960 -22.26372 29635 ft 390 kts 218°
2026-04-25 18:09 17.83629 -22.27802 29200 ft 386 kts 218°
2026-04-25 18:09 17.81324 -22.29212 28770 ft 382 kts 218°
2026-04-25 18:09 17.79812 -22.30139 28493 ft 379 kts 218°
2026-04-25 18:10 17.76790 -22.31998 27928 ft 374 kts 217°
2026-04-25 18:10 17.74559 -22.33371 27525 ft 370 kts 217°
2026-04-25 18:10 17.72347 -22.34733 27107 ft 367 kts 217°
2026-04-25 18:10 17.70149 -22.36085 26692 ft 365 kts 217°
2026-04-25 18:11 17.67973 -22.37421 26271 ft 363 kts 217°
2026-04-25 18:11 17.65794 -22.38763 25849 ft 361 kts 217°
2026-04-25 18:11 17.63637 -22.40095 25417 ft 360 kts 217°
2026-04-25 18:11 17.61477 -22.41426 24971 ft 360 kts 216°
2026-04-25 18:12 17.59319 -22.42752 24530 ft 359 kts 216°
2026-04-25 18:12 17.57190 -22.44058 24083 ft 360 kts 216°
2026-04-25 18:12 17.55030 -22.45384 23627 ft 360 kts 216°
2026-04-25 18:12 17.52867 -22.46713 23114 ft 360 kts 215°
2026-04-25 18:13 17.50710 -22.48036 22654 ft 358 kts 215°
2026-04-25 18:13 17.48565 -22.49352 22216 ft 356 kts 215°
2026-04-25 18:13 17.46431 -22.50661 21761 ft 355 kts 215°
2026-04-25 18:14 17.42181 -22.53263 20878 ft 351 kts 214°
2026-04-25 18:14 17.40075 -22.54553 20456 ft 350 kts 214°
2026-04-25 18:14 17.37982 -22.55838 20024 ft 349 kts 214°
2026-04-25 18:14 17.35893 -22.57119 19597 ft 348 kts 214°
2026-04-25 18:15 17.33809 -22.58396 19175 ft 346 kts 214°
2026-04-25 18:15 17.31735 -22.59665 18748 ft 345 kts 213°
2026-04-25 18:15 17.29659 -22.60934 18336 ft 344 kts 213°
2026-04-25 18:15 17.27594 -22.62196 17886 ft 343 kts 213°
2026-04-25 18:16 17.25543 -22.63451 17455 ft 340 kts 213°
2026-04-25 18:16 17.23512 -22.64695 17043 ft 338 kts 213°
2026-04-25 18:16 17.19478 -22.67162 16252 ft 334 kts 213°
2026-04-25 18:17 17.17477 -22.68383 15855 ft 332 kts 213°
2026-04-25 18:17 17.15479 -22.69603 15464 ft 331 kts 213°
2026-04-25 18:17 17.13495 -22.70814 15071 ft 330 kts 213°
2026-04-25 18:17 17.11520 -22.72021 14740 ft 327 kts 213°
2026-04-25 18:18 17.09584 -22.73204 14378 ft 326 kts 213°
2026-04-25 18:18 17.07624 -22.74399 13983 ft 326 kts 213°
2026-04-25 18:18 17.05645 -22.75606 13572 ft 326 kts 213°
2026-04-25 18:18 17.03709 -22.76786 13301 ft 314 kts 213°
2026-04-25 18:19 17.01856 -22.77912 12858 ft 304 kts 213°
2026-04-25 18:19 17.00070 -22.78997 12292 ft 299 kts 213°
2026-04-25 18:19 16.98288 -22.80084 11704 ft 295 kts 213°
2026-04-25 18:19 16.96528 -22.81159 11156 ft 290 kts 213°
2026-04-25 18:20 16.94798 -22.82218 10604 ft 286 kts 213°
2026-04-25 18:20 16.93094 -22.83258 10066 ft 282 kts 213°
2026-04-25 18:20 16.91403 -22.84285 9765 ft 279 kts 213°
2026-04-25 18:20 16.89732 -22.85301 9425 ft 276 kts 213°
2026-04-25 18:21 16.88081 -22.86307 9035 ft 275 kts 214°
2026-04-25 18:21 16.86430 -22.87318 8607 ft 275 kts 214°
2026-04-25 18:21 16.84779 -22.88327 8222 ft 275 kts 214°
2026-04-25 18:21 16.83129 -22.89334 7826 ft 275 kts 214°
2026-04-25 18:22 16.81478 -22.90339 7385 ft 274 kts 214°
2026-04-25 18:22 16.80922 -22.90678 7233 ft 275 kts 214°
2026-04-25 18:22 16.78175 -22.92347 6568 ft 274 kts 213°
2026-04-25 18:22 16.76525 -22.93345 6165 ft 274 kts 214°
2026-04-25 18:23 16.74878 -22.94345 5748 ft 274 kts 213°
2026-04-25 18:23 16.73209 -22.95307 5288 ft 274 kts 212°
2026-04-25 18:23 16.71527 -22.96255 4864 ft 276 kts 212°
2026-04-25 18:23 16.69838 -22.97207 4447 ft 275 kts 211°
2026-04-25 18:24 16.68154 -22.98178 3986 ft 277 kts 211°
2026-04-25 18:24 16.66497 -22.99162 3556 ft 277 kts 212°
2026-04-25 18:24 16.64831 -23.00180 3111 ft 279 kts 212°
2026-04-25 18:24 16.63164 -23.01216 2994 ft 279 kts 212°
2026-04-25 18:25 16.61476 -23.02267 2805 ft 283 kts 212°
2026-04-25 18:25 16.59792 -23.03320 2559 ft 282 kts 212°
2026-04-25 18:25 16.58112 -23.04374 2339 ft 281 kts 212°
2026-04-25 18:25 16.56380 -23.05323 2211 ft 282 kts 197°
2026-04-25 18:26 16.54460 -23.05505 2086 ft 278 kts 168°
2026-04-25 18:26 16.52715 -23.04760 2004 ft 270 kts 138°
2026-04-25 18:26 16.51555 -23.03287 2011 ft 256 kts 109°
2026-04-25 18:26 16.51235 -23.01582 2004 ft 230 kts 85°
2026-04-25 18:27 16.51282 -22.99961 2006 ft 222 kts 82°
2026-04-25 18:27 16.51365 -22.98355 2009 ft 221 kts 82°
2026-04-25 18:27 16.51606 -22.96799 2011 ft 214 kts 62°
2026-04-25 18:27 16.52455 -22.95567 2007 ft 209 kts 38°
2026-04-25 18:28 16.53723 -22.94872 2012 ft 207 kts 13°
2026-04-25 18:28 16.55159 -22.94759 2014 ft 209 kts
2026-04-25 18:28 16.56621 -22.94774 2007 ft 210 kts
2026-04-25 18:29 16.59553 -22.94799 2011 ft 213 kts
2026-04-25 18:29 16.61036 -22.94808 2010 ft 213 kts
2026-04-25 18:30 16.65383 -22.94840 1532 ft 198 kts
2026-04-25 18:30 16.66710 -22.94849 1297 ft 183 kts
2026-04-25 18:30 16.67925 -22.94859 1068 ft 164 kts
2026-04-25 18:30 16.68986 -22.94871 899 ft 143 kts
2026-04-25 18:31 16.69960 -22.94882 701 ft 134 kts
2026-04-25 18:31 16.70855 -22.94884 507 ft 129 kts
2026-04-25 18:31 16.71757 -22.94888 371 ft 134 kts
2026-04-25 18:31 16.72687 -22.94890 226 ft 131 kts
2026-04-25 18:32 16.73538 -22.94895 192 ft 107 kts
2026-04-25 18:32 16.74104 -22.94896 197 ft 43 kts 360°
2026-04-25 18:32 16.74237 -22.94851 192 ft 16 kts 52°
2026-04-25 18:32 16.74291 -22.94760 193 ft 14 kts 51°
2026-04-25 18:33 16.74258 -22.94699 185 ft 12 kts 171°
2026-04-25 18:33 16.74187 -22.94699 198 ft 9 kts 179°
2026-04-25 18:33 16.74074 -22.94697 186 ft 27 kts 180°
2026-04-25 18:33 16.73904 -22.94697 199 ft 19 kts 179°
2026-04-25 18:34 16.73758 -22.94696 202 ft 23 kts 178°
2026-04-25 18:34 16.73621 -22.94673 200 ft 16 kts 129°
2026-04-25 18:34 16.73569 -22.94594 210 ft 11 kts 133°
2026-04-25 18:34 16.73560 -22.94531 200 ft 8 kts 87°
2026-04-25 18:35 16.73560 -22.94505 201 ft 0 kts 91°